Home > Weather > Hopkinsville > Past weeks

Flag for USA Past Weather in Hopkinsville, Kentucky, USA — Yesterday and Last 2 Weeks

Now
84 °F

Sunny.


Feels Like: 90 °F
Forecast: 71 / 88 °F
Wind: 6 mph from West

Location: Fort Campbell U. S. Army Airfield

Current Time: Jul 30, 2016 at 7:31:40 PM

Latest Report: Jul 30, 2016 at 6:58 PM


Visibility: 10 mi

Pressure: 29.94 "Hg

Humidity: 68%

Dew Point: 72 °F

Location of HopkinsvilleLocation

Past Weather in Hopkinsville — Graph

°F

Hopkinsville Temperature Yesterday

Maximum temperature yesterday: 85 °F (at 3:58 PM)
Minimum temperature yesterday: 74 °F (at 11:58 PM)
Average temperature yesterday: 78 °F

High & Low Weather Summary for the Past Weeks

 TemperatureHumidityPressure
High93 °F (Jul 27, 3:47 PM)100% (Jul 23, 7:58 PM)30.23 "Hg (Jul 23, 7:58 PM)
Low71 °F (Jul 16, 1:58 AM)52% (Jul 16, 2:58 PM)29.87 "Hg (Jul 27, 5:58 PM)
Average81 °F80%30.03 "Hg
* Reported Jul 15 5:58 PM — Jul 30 5:58 PM, Hopkinsville, Weather by CustomWeather, © 2016

Note: Actual official high and low records may vary slightly from our data, if they occured in-between our weather recording intervals... More about our weather records

Advertising

Hopkinsville Weather History for the Previous 24 Hours

Scroll right to see more
 ConditionsComfort  
Time TempWeatherWind HumidityBarometerVisibility
5:58 PM
Sat, Jul 30
85 °FPassing clouds.7 mph66%29.94 "Hg10 mi
4:58 PM84 °FPassing clouds.7 mph66%29.95 "Hg10 mi
3:58 PM84 °FScattered clouds.5 mph63%29.95 "Hg10 mi
2:58 PM85 °FPassing clouds.6 mph62%29.96 "Hg10 mi
1:58 PM85 °FSunny.8 mph63%29.97 "Hg10 mi
12:58 PM85 °FScattered clouds.6 mph66%29.99 "Hg10 mi
11:58 AM82 °FScattered clouds.7 mph69%30.00 "Hg10 mi
10:58 AM80 °FPassing clouds.7 mph74%30.00 "Hg10 mi
9:58 AM78 °FPartly sunny.6 mph81%30.00 "Hg10 mi
9:04 AM75 °FOvercast.8 mph89%30.00 "Hg10 mi
8:58 AM75 °FLow clouds.9 mph89%29.99 "Hg10 mi
8:01 AM73 °FPartly sunny.9 mph94%30.00 "Hg10 mi
7:58 AM74 °FPartly sunny.9 mph93%29.98 "Hg10 mi
6:58 AM72 °FLow clouds.7 mph97%29.98 "Hg10 mi
5:58 AM71 °FSunny.1 mph97%29.96 "Hg10 mi
5:02 AM72 °FPassing clouds.5 mph100%29.96 "Hg10 mi
4:58 AM71 °FPassing clouds.6 mph98%29.95 "Hg10 mi
4:02 AM72 °FPassing clouds.6 mph100%29.95 "Hg10 mi
3:58 AM71 °FPassing clouds.6 mph98%29.94 "Hg10 mi
2:58 AM72 °FLow clouds.7 mph98%29.94 "Hg10 mi
2:02 AM72 °FPassing clouds.3 mph100%29.94 "Hg10 mi
1:58 AM72 °FClear.6 mph97%29.93 "Hg10 mi
12:58 AM72 °FClear.No wind96%29.94 "Hg10 mi
11:58 PM
Fri, Jul 29
74 °FClear.5 mph94%29.94 "Hg10 mi
10:58 PM74 °FPassing clouds.5 mph94%29.92 "Hg10 mi
9:58 PM75 °FClear.No wind91%29.95 "Hg10 mi
8:58 PM75 °FPartly cloudy.3 mph92%29.96 "Hg10 mi
7:58 PM75 °FClear.5 mph92%29.92 "Hg10 mi
Weather by CustomWeather, © 2016

See weather overviewHow to use our weather pages